Location: �terpigny
(49.8910°N, 2.9249°E)
Time: 04:27:00
(UTC+00:00)

Cosmos 332 Rocket - Pass Details

Date: 02 June 2022
Orbit: 681 x 703 km, 74.0° (Epoch: 05 July)

Event Time Altitude Azimuth Distance (km) Brightness Sun altitude
Exits shadow 23:12:25 31° 151° (SSE) 1,184 4.5 -17.4°
Maximum altitude 23:14:03 43° 106° (ESE) 962 4.3 -17.5°
Drops below altitude 10° 23:18:35 10° 35° (NE) 2,135 7.0 -17.6°
Sets 23:20:59 0° 29° (NNE) 3,057 8.0 -17.6°
